This demonstration page uses our WeatherBlox Daily Observations layout. Learn more.

Left ArrowRight Arrow

38.83388, -104.82136

Hourly Observations for March 7, 2021

Temp ( °F °C ) Dew Point ( °F °C ) Humidity (%) Winds ( mph kmh ) Pressure ( in mb ) Visibility ( mi km ) Precip ( " mm )
12:58 am 00:58 Clear 52 11.2 0 -17.8 11 11 WNW 18 30 29.50 999 10 16 0.00 0.00
1:58 am 01:58 Clear 45 7.2 7 -14 21 21 Calm 29.55 1001 10 16 0.00 0.00
2:58 am 02:58 Clear 45 7 8 -13.6 22 22 W 6 9 29.55 1001 10 16 0.00 0.00
3:58 am 03:58 Clear 46 7.6 6 -14.4 19 19 Calm 29.56 1001 10 16 0.00 0.00
4:58 am 04:58 Clear 43 5.9 9 -13 25 25 NW 5 7 29.62 1003 10 16 0.00 0.00
5:58 am 05:58 Clear 43 6 8 -13.5 23 23 Calm 29.66 1004 10 16 0.00 0.00
6:58 am 06:58 Sunny 49 9.2 4 -15.8 16 16 SSE 6 9 29.66 1004 10 16 0.00 0.00
7:58 am 07:58 Sunny 51 10.6 8 -13.5 17 17 SE 9 15 29.70 1006 10 16 0.00 0.00
8:58 am 08:58 Sunny 52 11.3 11 -11.9 19 19 SE 7 11 29.72 1006 10 16 0.00 0.00
9:58 am 09:58 Sunny 57 13.7 12 -11 17 17 ESE 14 22 29.72 1006 10 16 0.00 0.00
11:58 am 11:58 Sunny 58 14.7 10 -12.5 14 14 ESE 16 26 29.68 1005 10 16 0.00 0.00
12:58 pm 12:58 Sunny 59 14.8 9 -12.9 14 14 SE 14 22 29.66 1005 10 16 0.00 0.00
1:58 pm 13:58 Sunny 59 14.8 8 -13.5 13 13 SE 17 28 29.67 1005 10 16 0.00 0.00
2:58 pm 14:58 Mostly Sunny 58 14.5 7 -13.7 13 13 SSE 17 28 29.68 1005 10 16 0.00 0.00
3:58 pm 15:58 Sunny 56 13.5 8 -13.4 14 14 SSE 17 28 29.68 1005 10 16 0.00 0.00
4:58 pm 16:58 Sunny 55 12.6 9 -12.8 16 16 S 10 17 29.73 1007 10 16 0.00 0.00
5:58 pm 17:58 Sunny 54 12 10 -12.3 17 17 S 14 22 29.75 1007 10 16 0.00 0.00
6:58 pm 18:58 Clear 52 11.3 11 -11.6 19 19 S 12 19 29.75 1008 10 16 0.00 0.00
7:58 pm 19:58 Clear 52 11 12 -10.9 21 21 SSW 12 19 29.76 1008 10 16 0.00 0.00
8:58 pm 20:58 Clear 51 10.8 12 -10.9 21 21 SSW 13 20 29.76 1008 10 16 0.00 0.00
9:58 pm 21:58 Clear 51 10.7 11 -11.5 20 20 SSW 13 20 29.74 1007 10 16 0.00 0.00
10:58 pm 22:58 Mostly Cloudy 49 9.7 12 -11.1 22 22 SSE 7 11 29.73 1007 10 16 0.00 0.00
11:58 pm 23:58 Mostly Cloudy 48 9.1 12 -11 23 23 S 7 11 29.71 1006 10 16 0.00 0.00

Powered by AerisWeather